This demonstration page uses our WeatherBlox Daily Observations layout. Learn more.

Left ArrowRight Arrow

39.92423, -83.80882

Hourly Observations for September 20, 2020

Temp ( °F °C ) Dew Point ( °F °C ) Humidity (%) Winds ( mph kmh ) Pressure ( in mb ) Visibility ( mi km ) Precip ( " mm )
12:56 am 00:56 Clear 43 6.1 39 3.9 86 86 Calm 30.37 1028 10 16.0934 0 0
1:56 am 01:56 Clear 42 5.6 39 3.9 89 89 N 5 7 30.38 1029 10 16.0934 0 0
2:56 am 02:56 Clear 40 4.4 39 3.9 97 97 Calm 30.39 1029 10 16.0934 0 0
3:56 am 03:56 Clear 40 4.4 40 4.4 100 100 NE 5 7 30.39 1029 10 16.0934 0 0
4:56 am 04:56 Clear 39 3.9 39 3.9 100 100 NE 5 7 30.39 1029 10 16.0934 0 0
5:56 am 05:56 Clear 39 3.9 39 3.9 100 100 NE 5 7 30.4 1029 10 16.0934 0 0
6:56 am 06:56 Clear 37 2.8 37 2.8 100 100 NE 6 9 30.42 1030 10 16.0934 0 0
7:56 am 07:56 Sunny 40 4.4 39 3.9 97 97 ENE 6 9 30.44 1031 10 16.0934 0 0
8:56 am 08:56 Sunny 49 9.4 44 6.7 83 83 ENE 6 9 30.45 1031 10 16.0934 0 0
9:56 am 09:56 Sunny 56 13.3 44 6.7 65 65 ENE 10 17 30.45 1031 10 16.0934 0 0
10:56 am 10:56 Sunny 61 16.1 38 3.3 43 43 E 12 19 30.47 1032 10 16.0934 0 0
11:56 am 11:56 Sunny 65 18.3 37 2.8 36 36 E 15 24 30.47 1032 10 16.0934 0 0
12:56 pm 12:56 Sunny 68 20 35 1.7 30 30 E 12 19 30.46 1032 10 16.0934 0 0
1:56 pm 13:56 Sunny 69 20.6 32 0 25 25 E 13 20 30.45 1031 10 16.0934 0 0
2:56 pm 14:56 Sunny 69 20.6 31 -0.6 24 24 E 10 17 30.43 1031 10 16.0934 0 0
3:56 pm 15:56 Sunny 70 21.1 29 -1.7 22 22 E 13 20 30.42 1030 10 16.0934 0 0
4:56 pm 16:56 Sunny 70 21.1 32 0 25 25 ENE 13 20 30.41 1030 10 16.0934 0 0
5:56 pm 17:56 Sunny 68 20 34 1.1 28 28 E 12 19 30.4 1030 10 16.0934 0 0
6:56 pm 18:56 Sunny 64 17.8 35 1.7 34 34 E 8 13 30.42 1030 10 16.0934 0 0
7:56 pm 19:56 Clear 54 12.2 38 3.3 55 55 E 6 9 30.43 1030 10 16.0934 0 0
8:56 pm 20:56 Clear 50 10 40 4.4 68 68 E 6 9 30.43 1031 10 16.0934 0 0
9:56 pm 21:56 Clear 47 8.3 40 4.4 77 77 ENE 5 7 30.44 1031 10 16.0934 0 0
10:56 pm 22:56 Clear 46 7.8 39 3.9 77 77 E 7 11 30.43 1031 9 14.48406 0 0
11:56 pm 23:56 Clear 46 7.8 39 3.9 77 77 ENE 5 7 30.44 1031 9 14.48406 0 0

Powered by AerisWeather